Hourly Weather Sopron

Today, 2 October, Friday

Time Temperature Precipitation Wind Pressure Humidity
00:00 +11°C° 0 mm 0 mps 737 mmHg 83%
01:00 +11°C° 0 mm 0 mps 737 mmHg 83%
02:00 +11°C° 0 mm 0 mps 736 mmHg 83%
03:00 +12°C° 0 mm 1 mps 736 mmHg 83%
04:00 +12°C° 0 mm 1 mps 736 mmHg 83%
05:00 +12°C° 0 mm 1 mps 736 mmHg 84%
06:00 +12°C° 0 mm 1 mps 736 mmHg 85%
07:00 +12°C° 0 mm 1 mps 736 mmHg 85%
08:00 +14°C° 0 mm 2 mps 736 mmHg 82%
09:00 +14°C° 0 mm 3 mps 736 mmHg 78%
10:00 +17°C° 0 mm 4 mps 736 mmHg 75%
11:00 +17°C° 0 mm 5 mps 735 mmHg 71%
12:00 +19°C° 0 mm 6 mps 735 mmHg 67%
13:00 +21°C° 0 mm 8 mps 735 mmHg 64%
14:00 +21°C° 0 mm 8 mps 735 mmHg 63%
15:00 +21°C° 0 mm 8 mps 735 mmHg 62%
16:00 +21°C° 0 mm 8 mps 734 mmHg 61%
17:00 +20°C° 0 mm 8 mps 734 mmHg 63%
18:00 +20°C° 0 mm 7 mps 735 mmHg 66%
19:00 +18°C° 0 mm 7 mps 735 mmHg 68%
20:00 +17°C° 0 mm 7 mps 735 mmHg 70%
21:00 +17°C° 0 mm 7 mps 735 mmHg 72%
22:00 +17°C° 0 mm 7 mps 735 mmHg 74%
23:00 +17°C° 0 mm 7 mps 735 mmHg 73%

Tomorrow, 3 October, Saturday

Time Temperature Precipitation Wind Pressure Humidity
00:00 +17°C° 0 mm 7 mps 735 mmHg 73%
01:00 +17°C° 0 mm 8 mps 734 mmHg 73%
02:00 +17°C° 0 mm 8 mps 734 mmHg 73%
03:00 +16°C° 0 mm 8 mps 734 mmHg 73%
04:00 +16°C° 0 mm 8 mps 734 mmHg 73%
05:00 +16°C° 0 mm 8 mps 734 mmHg 73%
06:00 +17°C° 0 mm 8 mps 734 mmHg 72%
07:00 +17°C° 0 mm 8 mps 734 mmHg 72%
08:00 +20°C° 0 mm 8 mps 734 mmHg 66%
09:00 +21°C° 0 mm 9 mps 734 mmHg 60%
10:00 +23°C° 0 mm 9 mps 734 mmHg 54%
11:00 +24°C° 0 mm 9 mps 734 mmHg 53%
12:00 +26°C° 0 mm 9 mps 734 mmHg 52%
13:00 +26°C° 0 mm 8 mps 733 mmHg 50%
14:00 +26°C° 0 mm 7 mps 733 mmHg 52%
15:00 +26°C° 0 mm 6 mps 733 mmHg 55%
16:00 +26°C° 0 mm 5 mps 733 mmHg 57%
17:00 +25°C° 0 mm 5 mps 733 mmHg 59%
18:00 +25°C° 0 mm 5 mps 733 mmHg 60%
19:00 +23°C° 0 mm 5 mps 733 mmHg 61%
20:00 +22°C° 0.5 mm 5 mps 733 mmHg 67%
21:00 +21°C° 0.5 mm 6 mps 733 mmHg 72%
22:00 +21°C° 0.5 mm 6 mps 733 mmHg 77%
23:00 +20°C° 0.2 mm 6 mps 733 mmHg 79%

Day after tomorrow, 4 October, Sunday

Time Temperature Precipitation Wind Pressure Humidity
00:00 +20°C° 0.2 mm 6 mps 733 mmHg 81%
01:00 +20°C° 0.2 mm 6 mps 733 mmHg 83%
02:00 +18°C° 0.2 mm 7 mps 733 mmHg 80%
03:00 +17°C° 0.2 mm 7 mps 733 mmHg 78%
04:00 +16°C° 0.2 mm 7 mps 733 mmHg 75%
05:00 +16°C° 0 mm 8 mps 733 mmHg 74%
06:00 +15°C° 0 mm 9 mps 734 mmHg 72%
07:00 +13°C° 0 mm 9 mps 735 mmHg 71%
08:00 +15°C° 0 mm 9 mps 735 mmHg 67%
09:00 +17°C° 0 mm 10 mps 736 mmHg 63%
10:00 +18°C° 0 mm 10 mps 737 mmHg 58%
11:00 +19°C° 0 mm 9 mps 737 mmHg 56%
12:00 +21°C° 0 mm 9 mps 738 mmHg 53%
13:00 +21°C° 0 mm 9 mps 738 mmHg 50%
14:00 +21°C° 0 mm 9 mps 738 mmHg 52%
15:00 +21°C° 0 mm 8 mps 738 mmHg 53%
16:00 +21°C° 0 mm 7 mps 738 mmHg 54%
17:00 +18°C° 0 mm 7 mps 738 mmHg 59%
18:00 +17°C° 0 mm 6 mps 738 mmHg 63%
19:00 +16°C° 0 mm 6 mps 738 mmHg 67%
20:00 +16°C° 0 mm 6 mps 738 mmHg 69%
21:00 +15°C° 0 mm 5 mps 739 mmHg 70%
22:00 +15°C° 0 mm 5 mps 739 mmHg 72%
23:00 +14°C° 0 mm 5 mps 738 mmHg 72%

5 October, Monday

Time Temperature Precipitation Wind Pressure Humidity
00:00 +14°C° 0 mm 4 mps 738 mmHg 73%
01:00 +14°C° 0 mm 4 mps 738 mmHg 73%
02:00 +14°C° 0 mm 4 mps 738 mmHg 75%
03:00 +13°C° 0 mm 3 mps 738 mmHg 77%
04:00 +13°C° 0 mm 3 mps 738 mmHg 79%
05:00 +13°C° 0 mm 3 mps 738 mmHg 79%
06:00 +13°C° 0 mm 3 mps 738 mmHg 79%
07:00 +13°C° 0 mm 3 mps 738 mmHg 80%
08:00 +16°C° 0 mm 3 mps 738 mmHg 73%
09:00 +18°C° 0 mm 4 mps 738 mmHg 67%
10:00 +20°C° 0 mm 5 mps 738 mmHg 60%
11:00 +21°C° 0 mm 6 mps 738 mmHg 57%
12:00 +21°C° 0 mm 6 mps 738 mmHg 54%
13:00 +22°C° 0 mm 7 mps 738 mmHg 51%
14:00 +22°C° 0 mm 7 mps 738 mmHg 52%
15:00 +21°C° 0 mm 6 mps 738 mmHg 54%
16:00 +21°C° 0 mm 6 mps 738 mmHg 55%
17:00 +19°C° 0 mm 5 mps 739 mmHg 62%
18:00 +17°C° 0 mm 4 mps 740 mmHg 68%
19:00 +14°C° 0 mm 4 mps 740 mmHg 74%
20:00 +13°C° 0 mm 3 mps 741 mmHg 74%
21:00 +13°C° 0 mm 3 mps 741 mmHg 74%
22:00 +13°C° 0 mm 2 mps 742 mmHg 74%
23:00 +13°C° 0 mm 2 mps 742 mmHg 74%

6 October, Tuesday

Time Temperature Precipitation Wind Pressure Humidity
00:00 +13°C° 0 mm 1 mps 743 mmHg 74%
01:00 +12°C° 0 mm 1 mps 743 mmHg 74%
02:00 +12°C° 0 mm 1 mps 743 mmHg 75%
03:00 +12°C° 0 mm 1 mps 743 mmHg 76%
04:00 +12°C° 0 mm 1 mps 743 mmHg 77%
05:00 +12°C° 0 mm 1 mps 743 mmHg 77%
06:00 +12°C° 0 mm 1 mps 743 mmHg 76%
07:00 +12°C° 0 mm 1 mps 743 mmHg 76%
08:00 +14°C° 0 mm 2 mps 743 mmHg 71%
09:00 +15°C° 0 mm 2 mps 743 mmHg 66%
10:00 +16°C° 0 mm 3 mps 743 mmHg 60%
11:00 +17°C° 0 mm 2 mps 742 mmHg 58%
12:00 +17°C° 0 mm 2 mps 742 mmHg 56%
13:00 +19°C° 0 mm 1 mps 741 mmHg 53%
14:00 +19°C° 0 mm 1 mps 741 mmHg 54%
15:00 +19°C° 0 mm 1 mps 741 mmHg 56%
16:00 +19°C° 0 mm 1 mps 741 mmHg 57%
17:00 +16°C° 0 mm 1 mps 741 mmHg 63%
18:00 +15°C° 0 mm 2 mps 741 mmHg 69%
19:00 +13°C° 0 mm 2 mps 741 mmHg 75%
20:00 +13°C° 0 mm 2 mps 742 mmHg 77%
21:00 +13°C° 0 mm 2 mps 742 mmHg 80%
22:00 +12°C° 0 mm 2 mps 742 mmHg 82%
23:00 +12°C° 0 mm 2 mps 742 mmHg 83%

7 October, Wednesday

Time Temperature Precipitation Wind Pressure Humidity
00:00 +12°C° 0 mm 2 mps 743 mmHg 84%
01:00 +12°C° 0 mm 1 mps 743 mmHg 85%
02:00 +11°C° 0 mm 1 mps 743 mmHg 85%
03:00 +11°C° 0 mm 1 mps 743 mmHg 84%
04:00 +11°C° 0 mm 1 mps 743 mmHg 83%
05:00 +11°C° 0 mm 1 mps 744 mmHg 83%
06:00 +12°C° 0 mm 1 mps 744 mmHg 82%
07:00 +12°C° 0 mm 1 mps 744 mmHg 81%
08:00 +13°C° 0 mm 1 mps 745 mmHg 76%
09:00 +15°C° 0 mm 1 mps 745 mmHg 71%
10:00 +16°C° 0 mm 1 mps 745 mmHg 65%
11:00 +18°C° 0 mm 1 mps 745 mmHg 62%
12:00 +17°C° 0 mm 2 mps 745 mmHg 59%
13:00 +18°C° 0 mm 2 mps 745 mmHg 56%
14:00 +18°C° 0 mm 2 mps 745 mmHg 58%
15:00 +19°C° 0 mm 1 mps 745 mmHg 59%
16:00 +19°C° 0 mm 1 mps 745 mmHg 61%
17:00 +16°C° 0 mm 1 mps 745 mmHg 65%
18:00 +15°C° 0 mm 1 mps 745 mmHg 69%
19:00 +12°C° 0 mm 0 mps 745 mmHg 73%
20:00 +13°C° 0 mm 1 mps 745 mmHg 74%
21:00 +13°C° 0 mm 1 mps 746 mmHg 75%
22:00 +13°C° 0 mm 1 mps 746 mmHg 76%
23:00 +12°C° 0 mm 1 mps 746 mmHg 77%
Show more